Location: Ferintosh
(52.7647°N, 112.9692°W)
Time: 18:07:05
(UTC+00:00)

A-11 Canister half - Pass Details

Date: 29 May 2024
Orbit: 1515 x 1685 km, 47.2° (Epoch: 12 June)

Event Time Altitude Azimuth Distance (km) Brightness Sun altitude
Rises 08:21:02 0° 229° (SW) 4,811 - -14.7°
Reaches altitude 10° 08:24:19 10° 224° (SW) 3,803 - -14.6°
Exits shadow 08:25:03 13° 222° (SW) 3,584 10.4 -14.5°
Maximum altitude 08:33:19 47° 155° (SSE) 1,974 9.3 -14.2°
Drops below altitude 10° 08:42:04 10° 85° (E) 3,701 11.3 -13.9°
Sets 08:45:12 0° 80° (E) 4,673 11.9 -13.7°
